Location: Horowhenua
(40.7500°S, 175.3333°E)
Time: 06:07:32
(UTC+00:00)

SL-24 DEB - Pass Details

Date: 28 January 2023
Orbit: 659 x 693 km, 92.0° (Epoch: 01 April)

Event Time Altitude Azimuth Distance (km) Brightness Sun altitude
Exits shadow 15:23:04 20° 12° (NNE) 1,597 5.8 -18.9°
Maximum altitude 15:26:24 80° 96° (E) 721 4.4 -18.5°
Drops below altitude 10° 15:31:14 10° 182° (S) 2,184 7.4 -17.8°
Sets 15:33:31 0° 183° (S) 3,105 8.3 -17.5°
